Weather History for Caldwell, ID

Change the Weather History Date:

Sunday, February 16, 2014

  Actual Average (KBOI) Record (KBOI)
Temperature  
Mean Temperature 46 °F 37 °F  
Max Temperature 57 °F 45 °F 62 °F (1898)
Min Temperature 35 °F 28 °F 0 °F (1956)
Degree Days  
Heating Degree Days 19 28  
Month to date heating degree days 481  
Since 1 July heating degree days 3842  
Cooling Degree Days 0 0  
Month to date cooling degree days 0  
Year to date cooling degree days 0  
Moisture  
Dew Point 24 °F    
Average Humidity 45    
Maximum Humidity 62    
Minimum Humidity 32    
Precipitation  
Precipitation 0.00 in 0.03 in 0.40 in (1976)
Month to date precipitation 0.55  
Year to date precipitation 1.79  
Snow  
Snow 0.00 in 0.10 in 3.00 in (1975)
Month to date snowfall 1.9  
Since 1 July snowfall 16.7  
Snow Depth -    
Sea Level Pressure  
Sea Level Pressure 29.98 in    
Wind  
Wind Speed 12 mph (WSW)    
Max Wind Speed 28 mph    
Max Gust Speed 36 mph    
Visibility 10 miles    
Events      
T = Trace of Precipitation, MM = Missing Value Source: NWS Daily Summary

Daily Weather History Graph

Daily Weather History Graph

Search for Another Location

Airport:

Trip Planner

Search our weather history database for the weather conditions in past years. The results will help you decide how hot, cold, wet, or windy it might be!

Date:

Astronomy

Feb. 16, 2014 Rise Set
Actual Time 7:43 AM MST 6:18 PM MST
Civil Twilight 7:14 AM MST 6:47 PM MST
Nautical Twilight 6:40 AM MST 7:21 PM MST
Astronomical Twilight 6:07 AM MST 7:54 PM MST
Moon 8:24 PM MST (2/16) 8:11 AM MST (2/16)
Length of Visible Light 11h 33m
Length of Day
10h 34m
Full, 97% of the Moon is Illuminated
Feb 16
Full
Feb 22
Last Quarter
Mar 1
New
Mar 8
First Quarter
Mar 16
Full

Hourly Weather History & Observations

Time (MST) Temp. Windchill Dew Point Humidity Pressure Visibility Wind Dir Wind Speed Gust Speed Precip Events Conditions
12:15 AM 57.2 °F - 28.4 °F 33% 29.71 in 10.0 mi WSW 9.2 mph - N/A   Overcast
12:35 AM 55.4 °F - 28.4 °F 36% 29.70 in 10.0 mi SSW 8.1 mph - N/A   Overcast
12:55 AM 55.4 °F - 28.4 °F 36% 29.70 in 10.0 mi SSW 9.2 mph - N/A   Overcast
1:15 AM 55.4 °F - 28.4 °F 36% 29.69 in 10.0 mi SSW 8.1 mph 17.3 mph N/A   Overcast
1:35 AM 53.6 °F - 30.2 °F 41% 29.69 in 10.0 mi South 9.2 mph - N/A   Overcast
1:55 AM 51.8 °F - 30.2 °F 44% 29.69 in 10.0 mi South 9.2 mph - N/A   Overcast
2:15 AM 51.8 °F - 30.2 °F 44% 29.70 in 10.0 mi SSW 9.2 mph - N/A   Overcast
2:35 AM 50.0 °F - 30.2 °F 47% 29.72 in 10.0 mi WNW 17.3 mph 24.2 mph N/A   Overcast
2:55 AM 46.4 °F 42.9 °F 32.0 °F 57% 29.74 in 10.0 mi WNW 6.9 mph - N/A   Overcast
3:15 AM 46.4 °F 42.9 °F 32.0 °F 57% 29.75 in 10.0 mi WSW 6.9 mph - N/A   Overcast
3:35 AM 44.6 °F 42.2 °F 32.0 °F 61% 29.76 in 10.0 mi West 4.6 mph - N/A   Overcast
3:55 AM 44.6 °F 42.2 °F 32.0 °F 61% 29.76 in 10.0 mi West 4.6 mph - N/A   Overcast
4:15 AM 46.4 °F 43.5 °F 33.8 °F 62% 29.77 in 10.0 mi SW 5.8 mph - N/A   Overcast
4:35 AM 46.4 °F - 32.0 °F 57% 29.76 in 10.0 mi Calm Calm - N/A   Overcast
4:55 AM 46.4 °F 45.2 °F 30.2 °F 53% 29.78 in 10.0 mi SW 3.5 mph - N/A   Overcast
5:15 AM 46.4 °F 42.4 °F 30.2 °F 53% 29.79 in 10.0 mi WSW 8.1 mph - N/A   Overcast
5:35 AM 44.6 °F 38.4 °F 28.4 °F 53% 29.79 in 10.0 mi WSW 12.7 mph - N/A   Overcast
5:55 AM 44.6 °F 37.4 °F 28.4 °F 53% 29.80 in 10.0 mi West 16.1 mph - N/A   Overcast
6:15 AM 44.6 °F 37.2 °F 28.4 °F 53% 29.81 in 10.0 mi West 17.3 mph 23.0 mph N/A   Overcast
6:35 AM 44.6 °F 38.8 °F 28.4 °F 53% 29.82 in 10.0 mi West 11.5 mph 18.4 mph N/A   Overcast
6:55 AM 44.6 °F 38.8 °F 28.4 °F 53% 29.83 in 10.0 mi West 11.5 mph - N/A   Overcast
7:15 AM 44.6 °F 36.9 °F 24.8 °F 46% 29.85 in 10.0 mi West 18.4 mph 23.0 mph N/A   Overcast
7:35 AM 42.8 °F 37.5 °F 24.8 °F 49% 29.87 in 10.0 mi West 9.2 mph - N/A   Scattered Clouds
7:55 AM 42.8 °F 35.1 °F 21.2 °F 42% 29.89 in 10.0 mi West 16.1 mph 23.0 mph N/A   Clear
8:15 AM 42.8 °F 35.8 °F 19.4 °F 39% 29.91 in 10.0 mi West 13.8 mph 18.4 mph N/A   Clear
8:35 AM 41.0 °F 32.8 °F 21.2 °F 45% 29.93 in 10.0 mi West 16.1 mph 21.9 mph N/A   Clear
8:55 AM 42.8 °F 35.4 °F 21.2 °F 42% 29.95 in 10.0 mi West 15.0 mph - N/A   Clear
9:15 AM 42.8 °F 35.8 °F 21.2 °F 42% 29.97 in 10.0 mi West 13.8 mph 19.6 mph N/A   Clear
9:35 AM 44.6 °F 36.4 °F 23.0 °F 43% 29.97 in 10.0 mi West 20.7 mph 24.2 mph N/A   Clear
9:55 AM 44.6 °F 35.1 °F 19.4 °F 37% 29.98 in 10.0 mi West 27.6 mph 33.4 mph N/A   Clear
10:15 AM 44.6 °F 36.1 °F 21.2 °F 39% 30.00 in 10.0 mi West 21.9 mph 33.4 mph N/A   Clear
10:35 AM 44.6 °F 35.1 °F 21.2 °F 39% 30.01 in 10.0 mi West 27.6 mph 31.1 mph N/A   Clear
10:55 AM 44.6 °F 35.5 °F 21.2 °F 39% 30.03 in 10.0 mi West 25.3 mph 31.1 mph N/A   Clear
11:15 AM 44.6 °F 37.2 °F 19.4 °F 37% 30.04 in 10.0 mi West 17.3 mph 29.9 mph N/A   Clear
11:35 AM 44.6 °F 35.7 °F 19.4 °F 37% 30.05 in 10.0 mi West 24.2 mph 28.8 mph N/A   Clear
11:55 AM 46.4 °F 38.1 °F 21.2 °F 37% 30.06 in 10.0 mi West 24.2 mph 35.7 mph N/A   Clear
12:15 PM 46.4 °F 38.7 °F 19.4 °F 34% 30.07 in 10.0 mi West 20.7 mph 25.3 mph N/A   Mostly Cloudy
12:35 PM 46.4 °F 39.8 °F 21.2 °F 37% 30.08 in 10.0 mi WNW 16.1 mph 26.5 mph N/A   Mostly Cloudy
12:55 PM 46.4 °F 39.2 °F 21.2 °F 37% 30.09 in 10.0 mi West 18.4 mph 29.9 mph N/A   Overcast
1:15 PM 44.6 °F 37.4 °F 21.2 °F 39% 30.08 in 10.0 mi West 16.1 mph 29.9 mph N/A   Overcast
1:35 PM 44.6 °F 36.6 °F 21.2 °F 39% 30.08 in 10.0 mi WNW 19.6 mph - N/A   Mostly Cloudy
1:55 PM 46.4 °F 38.7 °F 24.8 °F 43% 30.08 in 10.0 mi WNW 20.7 mph 26.5 mph N/A   Overcast
2:15 PM 46.4 °F 40.4 °F 24.8 °F 43% 30.09 in 10.0 mi West 13.8 mph - N/A   Scattered Clouds
2:35 PM 46.4 °F 40.7 °F 24.8 °F 43% 30.09 in 10.0 mi WSW 12.7 mph - N/A   Clear
2:55 PM 48.2 °F - 21.2 °F 34% 30.10 in 10.0 mi WNW 18.4 mph 23.0 mph N/A   Clear
3:15 PM 48.2 °F - 21.2 °F 34% 30.10 in 10.0 mi WNW 13.8 mph 19.6 mph N/A   Partly Cloudy
3:35 PM 48.2 °F - 21.2 °F 34% 30.11 in 10.0 mi WNW 15.0 mph - N/A   Mostly Cloudy
3:55 PM 48.2 °F - 21.2 °F 34% 30.11 in 10.0 mi WNW 10.4 mph - N/A   Scattered Clouds
4:15 PM 48.2 °F - 21.2 °F 34% 30.11 in 10.0 mi WNW 9.2 mph - N/A   Scattered Clouds
4:35 PM 50.0 °F - 21.2 °F 32% 30.12 in 10.0 mi WNW 13.8 mph 21.9 mph N/A   Mostly Cloudy
4:55 PM 48.2 °F - 21.2 °F 34% 30.13 in 10.0 mi WNW 10.4 mph - N/A   Scattered Clouds
5:15 PM 48.2 °F - 21.2 °F 34% 30.14 in 10.0 mi WNW 9.2 mph - N/A   Clear
5:35 PM 46.4 °F 45.2 °F 21.2 °F 37% 30.14 in 10.0 mi NW 3.5 mph - N/A   Clear
5:55 PM 46.4 °F 45.2 °F 21.2 °F 37% 30.14 in 10.0 mi ENE 3.5 mph - N/A   Clear
6:15 PM 42.8 °F 39.3 °F 24.8 °F 49% 30.14 in 10.0 mi ESE 5.8 mph - N/A   Clear
6:35 PM 41.0 °F 36.4 °F 24.8 °F 53% 30.15 in 10.0 mi ESE 6.9 mph - N/A   Clear
6:55 PM 41.0 °F 36.4 °F 24.8 °F 53% 30.16 in 10.0 mi SE 6.9 mph - N/A   Clear
7:15 PM 39.2 °F 33.0 °F 24.8 °F 56% 30.17 in 10.0 mi SE 9.2 mph - N/A   Clear
7:35 PM 39.2 °F 37.0 °F 24.8 °F 56% 30.17 in 10.0 mi SSW 3.5 mph - N/A   Clear
7:55 PM 41.0 °F 34.7 °F 21.2 °F 45% 30.16 in 10.0 mi SE 10.4 mph - N/A   Clear
8:15 PM 39.2 °F 31.6 °F 21.2 °F 49% 30.16 in 10.0 mi SE 12.7 mph - N/A   Clear
8:35 PM 37.4 °F 29.8 °F 23.0 °F 56% 30.16 in 10.0 mi SE 11.5 mph - N/A   Clear
8:55 PM 37.4 °F 30.3 °F 23.0 °F 56% 30.16 in 10.0 mi SE 10.4 mph - N/A   Clear
9:15 PM 37.4 °F 29.8 °F 21.2 °F 52% 30.16 in 10.0 mi SE 11.5 mph - N/A   Clear
9:35 PM 37.4 °F 29.8 °F 21.2 °F 52% 30.15 in 10.0 mi SSE 11.5 mph - N/A   Clear
9:55 PM 37.4 °F 29.8 °F 21.2 °F 52% 30.15 in 10.0 mi SSE 11.5 mph - N/A   Clear
10:15 PM 35.6 °F 28.6 °F 21.2 °F 56% 30.15 in 10.0 mi SSE 9.2 mph - N/A   Clear
10:35 PM 37.4 °F 30.3 °F 21.2 °F 52% 30.14 in 10.0 mi South 10.4 mph - N/A   Clear
10:55 PM 37.4 °F 30.8 °F 21.2 °F 52% 30.14 in 10.0 mi South 9.2 mph - N/A   Clear
11:15 PM 37.4 °F 29.3 °F 21.2 °F 52% 30.13 in 10.0 mi SSE 12.7 mph - N/A   Clear
11:35 PM 37.4 °F 29.8 °F 21.2 °F 52% 30.12 in 10.0 mi SSE 11.5 mph - N/A   Clear
11:55 PM 37.4 °F 30.8 °F 21.2 °F 52% 30.12 in 10.0 mi South 9.2 mph - N/A   Clear